| time (UTC) | temp F | wind direction | speed MPH | gust MPH | rain 1hr in | rain 24hr in | rain mn in | humidity % | barometer mb |
| 20260504050022 | 65 | 334 | 0.0 | 0.0 | 0.00 | 0.00 | 0.00 | 44 | 1004.4 |
| 20260504044519 | 66 | 334 | 0.0 | 0.0 | 0.00 | 0.00 | 0.00 | 43 | 1004.5 |
| 20260504043108 | 67 | 334 | 0.0 | 0.0 | 0.00 | 0.00 | 0.00 | 41 | 1004.4 |
| 20260504041600 | 68 | 334 | 0.0 | 0.0 | 0.00 | 0.00 | 0.00 | 39 | 1004.3 |
| 20260504040041 | 69 | 334 | 0.0 | 0.0 | 0.00 | 0.00 | 0.00 | 37 | 1004.3 |
| 20260504034541 | 70 | 334 | 0.0 | 0.0 | 0.00 | 0.00 | 0.00 | 37 | 1004.2 |
| 20260504033038 | 71 | 334 | 0.0 | 0.0 | 0.00 | 0.00 | 0.00 | 35 | 1004.1 |
| 20260504031530 | 72 | 334 | 0.0 | 0.0 | 0.00 | 0.00 | 0.00 | 33 | 1003.9 |
| 20260504030027 | 74 | 334 | 0.0 | 0.0 | 0.00 | 0.00 | 0.00 | 31 | 1003.8 |
| 20260504024531 | 75 | 334 | 1.0 | 0.0 | 0.00 | 0.00 | 0.00 | 30 | 1003.8 |
| 20260504023019 | 76 | 334 | 2.0 | 0.0 | 0.00 | 0.00 | 0.00 | 29 | 1003.8 |
| 20260504021515 | 77 | 329 | 3.0 | 0.0 | 0.00 | 0.00 | 0.00 | 27 | 1003.9 |
| 20260504020055 | 78 | 329 | 3.0 | 0.0 | 0.00 | 0.00 | 0.00 | 25 | 1003.9 |
| 20260504014553 | 79 | 331 | 4.0 | 0.0 | 0.00 | 0.00 | 0.00 | 26 | 1003.9 |
| 20260504013038 | 79 | 331 | 4.0 | 0.0 | 0.00 | 0.00 | 0.00 | 24 | 1004.1 |
| 20260504011531 | 80 | 333 | 4.0 | 0.0 | 0.00 | 0.00 | 0.00 | 24 | 1004.3 |
| 20260504010018 | 80 | 334 | 4.0 | 0.0 | 0.00 | 0.00 | 0.00 | 24 | 1004.5 |
| 20260504004518 | 81 | 328 | 4.0 | 0.0 | 0.00 | 0.00 | 0.00 | 23 | 1004.7 |
| 20260504003028 | 81 | 350 | 4.0 | 0.0 | 0.00 | 0.00 | 0.00 | 22 | 1004.9 |
| 20260504001514 | 81 | 333 | 4.0 | 0.0 | 0.00 | 0.00 | 0.00 | 23 | 1005.1 |
| 20260504000012 | 82 | 315 | 4.0 | 0.0 | 0.00 | 0.00 | 0.00 | 23 | 1005.1 |
| 20260503234511 | 81 | 330 | 4.0 | 0.0 | 0.00 | 0.00 | 0.00 | 23 | 1005.1 |
| 20260503233009 | 81 | 326 | 5.0 | 0.0 | 0.00 | 0.00 | 0.00 | 23 | 1005.5 |
| 20260503231507 | 82 | 317 | 4.0 | 0.0 | 0.00 | 0.00 | 0.00 | 21 | 1005.7 |
| 20260503230053 | 82 | 342 | 4.0 | 0.0 | 0.00 | 0.00 | 0.00 | 22 | 1006.0 |
| 20260503224546 | 82 | 9 | 3.0 | 0.0 | 0.00 | 0.00 | 0.00 | 19 | 1006.1 |
| 20260503223027 | 82 | 360 | 4.0 | 0.0 | 0.00 | 0.00 | 0.00 | 19 | 1006.4 |
| 20260503221523 | 81 | 329 | 3.0 | 0.0 | 0.00 | 0.00 | 0.00 | 20 | 1006.6 |
| 20260503220009 | 81 | 327 | 4.0 | 0.0 | 0.00 | 0.00 | 0.00 | 21 | 1006.9 |
| 20260503214501 | 80 | 330 | 4.0 | 0.0 | 0.00 | 0.00 | 0.00 | 23 | 1007.2 |
| 20260503213047 | 80 | 338 | 4.0 | 0.0 | 0.00 | 0.00 | 0.00 | 26 | 1007.4 |
| 20260503211543 | 80 | 266 | 4.0 | 0.0 | 0.00 | 0.00 | 0.00 | 27 | 1007.7 |
| 20260503210039 | 79 | 321 | 3.0 | 0.0 | 0.00 | 0.00 | 0.00 | 29 | 1007.8 |
| 20260503204538 | 78 | 286 | 1.0 | 0.0 | 0.00 | 0.00 | 0.00 | 31 | 1008.2 |
| 20260503203041 | 78 | 306 | 0.0 | 0.0 | 0.00 | 0.00 | 0.00 | 32 | 1008.4 |
| 20260503201535 | 76 | 307 | 0.0 | 0.0 | 0.00 | 0.00 | 0.00 | 32 | 1008.7 |
| 20260503200031 | 76 | 309 | 0.0 | 0.0 | 0.00 | 0.00 | 0.00 | 35 | 1008.9 |
| 20260503194531 | 74 | 310 | 3.0 | 0.0 | 0.00 | 0.00 | 0.00 | 36 | 1009.1 |
| 20260503193014 | 75 | 308 | 2.0 | 0.0 | 0.00 | 0.00 | 0.00 | 36 | 1009.4 |
| 20260503191512 | 75 | 5 | 0.0 | 0.0 | 0.00 | 0.00 | 0.00 | 35 | 1009.7 |
| 20260503190055 | 74 | 5 | 0.0 | 0.0 | 0.00 | 0.00 | 0.00 | 36 | 1009.9 |
| 20260503184611 | 72 | 5 | 0.0 | 0.0 | 0.00 | 0.00 | 0.00 | 36 | 1010.0 |
| 20260503183036 | 71 | 5 | 0.0 | 0.0 | 0.00 | 0.00 | 0.00 | 38 | 1010.3 |
| 20260503181536 | 71 | 5 | 0.0 | 0.0 | 0.00 | 0.00 | 0.00 | 39 | 1010.5 |
| 20260503180018 | 69 | 5 | 0.0 | 0.0 | 0.00 | 0.00 | 0.00 | 42 | 1010.7 |
| 20260503174524 | 68 | 5 | 0.0 | 0.0 | 0.00 | 0.00 | 0.00 | 42 | 1010.8 |
| 20260503173006 | 68 | 5 | 0.0 | 0.0 | 0.00 | 0.00 | 0.00 | 46 | 1011.0 |
| 20260503171509 | 67 | 5 | 0.0 | 0.0 | 0.00 | 0.00 | 0.00 | 44 | 1011.1 |
| 20260503081601 | 52 | 53 | 0.0 | 0.0 | 0.00 | 0.00 | 0.00 | 67 | 1010.9 |
| 20260503080108 | 53 | 53 | 0.0 | 0.0 | 0.00 | 0.00 | 0.00 | 66 | 1010.9 |
| 20260503071517 | 56 | 53 | 0.0 | 0.0 | 0.00 | 0.00 | 0.00 | 58 | 1010.7 |